Simultaneous Nadir Overpasses (SNOs) Predictions

Prediction of SNOs between NOAA-15 and METOP-C Satellite Orbit:

Table of predicted SNOs for the next 14.0 days since TLE Epoch: 12/26/2020
Index Date (NOAA-15) Time (NOAA-15) Lat,Lon (NOAA-15) SZA (NOAA-15 ) Date (METOP-C) Time (METOP-C) Lat,Lon (METOP-C) SZA (METOP-C ) Distance(km) Time Diff (sec)
1 12/31/2020 04:45:00 80.99, 145.01 105.60 12/31/2020 04:43:45 80.94, 144.96 105.52 5.62 75
2 12/31/2020 05:35:32 -80.97, -47.10 74.38 12/31/2020 05:34:24 -80.96, -47.23 74.42 2.40 68
3 12/31/2020 06:26:01 80.97, 120.24 105.62 12/31/2020 06:25:05 80.97, 120.20 105.59 0.65 56
4 12/31/2020 07:16:34 -80.96, -72.23 74.38 12/31/2020 07:15:45 -80.97, -72.35 74.40 2.57 49
5 12/31/2020 08:07:03 80.96, 95.11 105.62 12/31/2020 08:06:26 80.98, 95.08 105.61 1.72 37
6 12/31/2020 08:57:37 -80.97, -97.72 74.40 12/31/2020 08:57:07 -80.97, -97.83 74.43 2.02 30
7 12/31/2020 09:48:06 80.97, 69.61 105.60 12/31/2020 09:47:48 80.97, 69.60 105.59 0.29 18
8 12/31/2020 10:38:39 -80.96,-122.85 74.40 12/31/2020 10:38:28 -80.98,-122.95 74.41 2.13 11
9 12/31/2020 11:29:08 80.97, 44.47 105.60 12/31/2020 11:29:09 80.98, 44.48 105.61 1.48 1
10 12/31/2020 12:19:42 -80.98,-148.35 74.42 12/31/2020 12:19:50 -80.97,-148.43 74.43 1.67 8
11 12/31/2020 13:10:10 80.98, 18.97 105.58 12/31/2020 13:10:30 80.97, 19.00 105.59 0.68 20
12 12/31/2020 14:00:43 -80.97,-173.48 74.42 12/31/2020 14:01:10 -80.98,-173.55 74.41 1.70 27
13 12/31/2020 14:51:12 80.97, -6.16 105.58 12/31/2020 14:51:51 80.98, -6.12 105.61 1.46 39
14 12/31/2020 15:41:46 -80.98, 161.03 74.44 12/31/2020 15:42:32 -80.97, 160.97 74.43 1.37 46
15 12/31/2020 16:32:15 80.98, -31.66 105.56 12/31/2020 16:33:13 80.98, -31.60 105.58 1.25 58
16 12/31/2020 17:22:48 -80.97, 135.90 74.44 12/31/2020 17:23:53 -80.98, 135.85 74.41 1.28 65



Historial Predications of SNOs between NOAA-15 and METOP-C
